[Date Prev][Date Next][Thread Prev][Thread Next] - [Date Index][Thread Index][Author Index]

2 Line ISS Keps 1-19



ISS
1 25544U 98067A   02019.16799023  .00057507  00000-0  76452-3 0  9754
2 25544  51.6406  81.9736 0006780 321.0539 133.9229 15.57600120180782


----
Via the sarex mailing list at AMSAT.ORG courtesy of AMSAT-NA.
To unsubscribe, send "unsubscribe sarex" to Majordomo@amsat.org



AMSAT Top AMSAT Home